Weather History for Mojave, CA

Change the Weather History Date:

Friday, April 5, 2013

  Actual Average Record
Temperature  
Mean Temperature 62 °F -  
Max Temperature 68 °F 70 °F 88 °F (1989)
Min Temperature 55 °F 44 °F 36 °F (1978)
Degree Days  
Heating Degree Days 4    
Growing Degree Days 12 (Base 50)    
Moisture  
Dew Point 41 °F    
Average Humidity 51    
Maximum Humidity 67    
Minimum Humidity 35    
Precipitation  
Precipitation 0.00 in - - ()
Sea Level Pressure  
Sea Level Pressure 30.00 in    
Wind  
Wind Speed 21 mph (WNW)    
Max Wind Speed 50 mph    
Max Gust Speed 61 mph    
Visibility 10 miles    
Events      
Averages and records for this station are not official NWS values.
T = Trace of Precipitation, MM = Missing Value Source: NWS Daily Summary

Daily Weather History Graph

Daily Weather History Graph

Search for Another Location

Airport:

Trip Planner

Search our weather history database for the weather conditions in past years. The results will help you decide how hot, cold, wet, or windy it might be!

Date:

Astronomy

Apr. 05, 2013 Rise Set
Actual Time 6:33 AM PDT 7:17 PM PDT
Civil Twilight 6:07 AM PDT 7:43 PM PDT
Nautical Twilight 5:37 AM PDT 8:13 PM PDT
Astronomical Twilight 5:06 AM PDT 8:44 PM PDT
Moon 3:33 AM PDT (4/5) 2:56 PM PDT (4/5)
Length of Visible Light 13h 35m
Length of Day
12h 44m
Waning Crescent, 22% of the Moon is Illuminated
Apr 5
Waning Crescent
Apr 10
New
Apr 18
First Quarter
Apr 25
Full
May 2
Last Quarter

Hourly Weather History & Observations

Time (PDT) Temp. Dew Point Humidity Pressure Visibility Wind Dir Wind Speed Gust Speed Precip Events Conditions
12:15 AM 57.2 °F 46.4 °F 67% 30.05 in 10.0 mi WSW 10.4 mph - N/A   Clear
12:35 AM 57.2 °F 46.4 °F 67% 30.05 in 10.0 mi WSW 15.0 mph - N/A   Clear
12:55 AM 57.2 °F 46.4 °F 67% 30.05 in 10.0 mi West 20.7 mph 25.3 mph N/A   Clear
1:15 AM 57.2 °F 46.4 °F 67% 30.04 in 10.0 mi WSW 21.9 mph 28.8 mph N/A   Clear
1:35 AM 57.2 °F 46.4 °F 67% 30.04 in 10.0 mi West 26.5 mph 31.1 mph N/A   Clear
1:55 AM 57.2 °F 46.4 °F 67% 30.03 in 10.0 mi WSW 24.2 mph 34.5 mph N/A   Clear
2:15 AM 57.2 °F 46.4 °F 67% 30.03 in 10.0 mi WSW 21.9 mph 29.9 mph N/A   Clear
2:35 AM 57.2 °F 46.4 °F 67% 30.03 in 10.0 mi West 23.0 mph 33.4 mph N/A   Clear
2:55 AM 57.2 °F 44.6 °F 63% 30.03 in 10.0 mi WSW 18.4 mph 27.6 mph N/A   Clear
3:15 AM 57.2 °F 46.4 °F 67% 30.03 in 10.0 mi WSW 16.1 mph 23.0 mph N/A   Clear
3:35 AM 57.2 °F 46.4 °F 67% 30.03 in 10.0 mi WSW 16.1 mph 24.2 mph N/A   Clear
3:55 AM 57.2 °F 46.4 °F 67% 30.03 in 10.0 mi WSW 18.4 mph 24.2 mph N/A   Clear
4:15 AM 57.2 °F 44.6 °F 63% 30.02 in 10.0 mi WSW 21.9 mph 26.5 mph N/A   Clear
4:35 AM 57.2 °F 44.6 °F 63% 30.01 in 10.0 mi West 17.3 mph 26.5 mph N/A   Clear
4:55 AM 57.2 °F 44.6 °F 63% 30.01 in 10.0 mi WSW 11.5 mph 26.5 mph N/A   Clear
5:15 AM 55.4 °F 44.6 °F 67% 30.02 in 10.0 mi SW 11.5 mph 19.6 mph N/A   Partly Cloudy
5:35 AM 55.4 °F 44.6 °F 67% 30.02 in 10.0 mi West 6.9 mph 20.7 mph N/A   Partly Cloudy
5:55 AM 55.4 °F 44.6 °F 67% 30.02 in 10.0 mi WSW 13.8 mph 19.6 mph N/A   Clear
6:15 AM 55.4 °F 42.8 °F 63% 30.02 in 10.0 mi West 9.2 mph - N/A   Clear
6:35 AM 55.4 °F 41.0 °F 58% 30.02 in 10.0 mi WSW 11.5 mph - N/A   Clear
6:55 AM 57.2 °F 39.2 °F 51% 30.03 in 10.0 mi WNW 10.4 mph - N/A   Clear
7:15 AM 55.4 °F 41.0 °F 58% 30.04 in 10.0 mi West 5.8 mph - N/A   Clear
7:35 AM 59.0 °F 39.2 °F 48% 30.05 in 10.0 mi WNW 10.4 mph 16.1 mph N/A   Clear
7:55 AM 57.2 °F 42.8 °F 59% 30.05 in 10.0 mi WNW 15.0 mph 23.0 mph N/A   Clear
8:15 AM 59.0 °F 41.0 °F 51% 30.05 in 10.0 mi West 11.5 mph 16.1 mph N/A   Clear
8:35 AM 62.6 °F 39.2 °F 42% 30.05 in 10.0 mi SW 11.5 mph 17.3 mph N/A   Clear
8:50 AM 62.6 °F 39.2 °F 42% 30.05 in 10.0 mi West 18.4 mph 24.2 mph N/A   Clear
9:10 AM 62.6 °F 39.2 °F 42% 30.05 in 10.0 mi WNW 17.3 mph - N/A   Clear
9:25 AM 62.6 °F 39.2 °F 42% 30.05 in 10.0 mi West 24.2 mph 28.8 mph N/A   Clear
10:10 AM 64.4 °F 41.0 °F 42% 30.04 in 10.0 mi West 32.2 mph 39.1 mph N/A   Clear
10:30 AM 62.6 °F 41.0 °F 45% 30.04 in 10.0 mi WNW 29.9 mph 39.1 mph N/A   Clear
10:55 AM 64.4 °F 42.8 °F 45% 30.03 in 10.0 mi West 32.2 mph 40.3 mph N/A   Clear
11:05 AM 64.4 °F 42.8 °F 45% 30.04 in 10.0 mi WNW 28.8 mph 39.1 mph N/A   Clear
11:35 AM 64.4 °F 41.0 °F 42% 30.03 in 10.0 mi WNW 33.4 mph 40.3 mph N/A   Clear
11:50 AM 66.2 °F 41.0 °F 40% 30.04 in 10.0 mi WNW 27.6 mph 38.0 mph N/A   Clear
12:15 PM 66.2 °F 39.2 °F 37% 30.03 in 10.0 mi WNW 26.5 mph 38.0 mph N/A   Clear
12:25 PM 66.2 °F 39.2 °F 37% 30.03 in 10.0 mi WNW 27.6 mph 38.0 mph N/A   Clear
12:55 PM 68.0 °F 41.0 °F 37% 30.02 in 10.0 mi WNW 27.6 mph 34.5 mph N/A   Clear
1:05 PM 68.0 °F 39.2 °F 35% 30.02 in 10.0 mi WNW 32.2 mph 39.1 mph N/A   Clear
1:35 PM 68.0 °F 39.2 °F 35% 30.01 in 10.0 mi WNW 28.8 mph 35.7 mph N/A   Clear
1:55 PM 68.0 °F 41.0 °F 37% 30.00 in 10.0 mi West 28.8 mph 34.5 mph N/A   Clear
2:15 PM 68.0 °F 41.0 °F 37% 29.99 in 10.0 mi West 26.5 mph 33.4 mph N/A   Clear
2:35 PM 68.0 °F 41.0 °F 37% 29.99 in 10.0 mi West 24.2 mph 33.4 mph N/A   Clear
2:55 PM 66.2 °F 41.0 °F 40% 29.98 in 10.0 mi WNW 27.6 mph 36.8 mph N/A   Clear
3:15 PM 66.2 °F 41.0 °F 40% 29.98 in 10.0 mi WNW 23.0 mph 38.0 mph N/A   Clear
3:35 PM 64.4 °F 41.0 °F 42% 29.97 in 10.0 mi WNW 34.5 mph 47.2 mph N/A   Clear
3:55 PM 64.4 °F 42.8 °F 45% 29.96 in 10.0 mi West 39.1 mph 47.2 mph N/A   Clear
4:15 PM 62.6 °F 41.0 °F 45% 29.96 in 9.0 mi WNW 42.6 mph 55.2 mph N/A   Clear
4:35 PM 62.6 °F 41.0 °F 45% 29.95 in 10.0 mi WNW 46.0 mph 54.1 mph N/A   Clear
4:55 PM 59.0 °F 41.0 °F 51% 29.94 in 10.0 mi WNW 40.3 mph 56.4 mph N/A   Clear
5:15 PM 59.0 °F 39.2 °F 48% 29.95 in 10.0 mi WNW 35.7 mph 49.5 mph N/A   Clear
5:35 PM 59.0 °F 39.2 °F 48% 29.96 in 10.0 mi WNW 33.4 mph 41.4 mph N/A   Clear
5:55 PM 59.0 °F 39.2 °F 48% 29.96 in 10.0 mi NW 26.5 mph 39.1 mph N/A   Clear
6:15 PM 59.0 °F 39.2 °F 48% 29.96 in 10.0 mi NW 26.5 mph 36.8 mph N/A   Clear
6:35 PM 57.2 °F 39.2 °F 51% 29.95 in 10.0 mi NW 35.7 mph 48.3 mph N/A   Clear
6:55 PM 57.2 °F 39.2 °F 51% 29.95 in 10.0 mi NW 34.5 mph 46.0 mph N/A   Clear
7:15 PM 57.2 °F 39.2 °F 51% 29.96 in 10.0 mi NW 34.5 mph 46.0 mph N/A   Clear
7:35 PM 57.2 °F 39.2 °F 51% 29.96 in 10.0 mi WNW 31.1 mph 48.3 mph N/A   Clear
7:55 PM 55.4 °F 39.2 °F 54% 29.93 in 10.0 mi West 31.1 mph 50.6 mph N/A   Clear
8:15 PM 57.2 °F 35.6 °F 44% 29.95 in 10.0 mi NW 26.5 mph 43.7 mph N/A   Clear
8:35 PM 57.2 °F 35.6 °F 44% 29.96 in 10.0 mi NNE 13.8 mph 32.2 mph N/A   Clear
8:55 PM 57.2 °F 33.8 °F 41% 30.00 in 10.0 mi East 11.5 mph 23.0 mph N/A   Clear
9:15 PM 57.2 °F 32.0 °F 38% 30.00 in 10.0 mi NE 10.4 mph 26.5 mph N/A   Clear
9:35 PM 57.2 °F 32.0 °F 38% 30.00 in 10.0 mi NNW 17.3 mph 33.4 mph N/A   Clear
9:50 PM 57.2 °F 32.0 °F 38% 30.01 in 10.0 mi NNE 17.3 mph 31.1 mph N/A   Clear
10:15 PM 55.4 °F 35.6 °F 47% 30.01 in 10.0 mi North 13.8 mph 25.3 mph N/A   Clear
10:35 PM 55.4 °F 37.4 °F 51% 29.95 in 7.0 mi WNW 46.0 mph 59.8 mph N/A   Clear
10:55 PM 55.4 °F 37.4 °F 51% 29.95 in 9.0 mi WNW 49.5 mph 59.8 mph N/A   Clear
11:15 PM 55.4 °F 39.2 °F 54% 29.95 in 10.0 mi WNW 47.2 mph 61.0 mph N/A   Clear
11:35 PM 55.4 °F 39.2 °F 54% 29.95 in 10.0 mi WNW 47.2 mph 61.0 mph N/A   Clear
11:55 PM 55.4 °F 39.2 °F 54% 29.96 in 10.0 mi WNW 49.5 mph 55.2 mph N/A   Clear